Regional Weather Roundup
Issued by NWS

Home | Current Version | Previous Version | Text Only | Print | Product List | Glossary Off
Versions: 1 2 3 4 5 6 7 8 9 10 11 12 13 14 15 16 17 18 19 20 21 22 23 24 25 26 27 28 29 30 31 32 33 34 35 36 37 38 39 40 41 42 43 44 45 46 47 48 49 50

000
ASUS43 KMKX 010221
RWRWI

WISCONSIN REGIONAL WEATHER ROUNDUP
NATIONAL WEATHER SERVICE MILWAUKEE/SULLIVAN WI
900 PM CDT FRI SEP 30 2016

NOTE: "FAIR" INDICATES FEW OR NO CLOUDS BELOW 12,000 FEET WITH NO
SIGNIFICANT WEATHER AND/OR OBSTRUCTIONS TO VISIBILITY.

WIZ001-002-006>008-014>016-023>028-010300-
NORTHWEST WISCONSIN

CITY           SKY/WX    TMP DP  RH WIND       PRES   REMARKS
SUPERIOR ARPT  CLOUDY    53  52  96 NE8       30.30S
ASHLAND        FOG       52  52 100 NE12      30.30F VSB 1/2
HAYWARD        MOCLDY    53  51  93 NE6       30.27F
SIREN          CLEAR     56  51  84 NE5       30.26S
CUMBERLAND     CLEAR     55  50  82 NE8       30.24S
RICE LAKE      CLEAR     58  52  81 N9        30.24S
CHETEK         NOT AVBL
LADYSMITH      CLEAR     57  53  87 N7        30.25F
EAU CLAIRE     CLOUDY    62  53  72 NE6       30.19F
MENOMONIE      CLEAR     63  49  60 NE3       30.20F HAZE
NEW RICHMOND   CLEAR     56  51  81 NE6       30.22F
OSCEOLA        CLEAR     59  52  78 CALM      30.25S
$$

WIZ003>005-009-010-017-018-010300-
NORTH CENTRAL WISCONSIN

CITY           SKY/WX    TMP DP  RH WIND       PRES   REMARKS
MANITOWISH WTR NOT AVBL
ARBOR VITAE    CLEAR     59  54  82 NE6       30.26S
WOODRUFF       CLEAR     59  54  82 NE6       30.26S
RHINELANDER    PTCLDY    59  49  69 E7        30.26S
EAGLE RIVER    CLEAR     54  49  81 NE7       30.26F
LAND O LAKES   CLEAR     55  51  87 NE3       30.29F
PHILLIPS       CLEAR     57  52  83 N6        30.24F
TOMAHAWK       PTCLDY    58  46  64 NE3       30.25S
MEDFORD        CLOUDY    59  52  76 NE6       30.22S
MERRILL        PTCLDY    57  50  76 NE5       30.23F
$$

WIZ029-030-035-036-043>047-010300-
CENTRAL WISCONSIN

CITY           SKY/WX    TMP DP  RH WIND       PRES   REMARKS
WAUSAU         CLOUDY    62  51  67 NE8       30.20S
MOSINEE        CLOUDY    61  54  77 NE8       30.22S
MARSHFIELD     CLOUDY    62  51  67 NE6       30.19F
STEVENS POINT  CLOUDY    60  52  74 E7        30.20S
WAUPACA        LGT RAIN  61  55  81 NE6       30.19S
WAUTOMA        LGT RAIN  58  56  93 N7        30.19S
WISC RAPIDS    CLOUDY    62  54  74 E6        30.20S
CAMP DOUGLAS   MOCLDY    59  55  88 E1        30.18S
$$

WIZ011>013-019>022-031-037>040-048>050-010300-
NORTHEAST WISCONSIN

CITY           SKY/WX    TMP DP  RH WIND       PRES   REMARKS
ANTIGO         MOCLDY    57  51  79 NE6       30.24S
SHAWANO        CLOUDY    64  53  69 NE9G16    30.20F
OCONTO         NOT AVBL
STURGEON BAY   CLOUDY    62  56  80 NE14G20   30.20S
GREEN BAY      CLOUDY    61  60  97 NE15      30.18F
MANITOWOC      LGT RAIN  62  60  93 E10       30.17S
APPLETON       CLOUDY    61  57  88 NE13      30.17S
CLINTONVILLE   CLOUDY    61  50  67 NE9       30.20S
OSHKOSH        LGT RAIN  61  57  87 NE13      30.15F
$$

WIZ032>034-041-042-053>061-010300-
SOUTHWEST WISCONSIN

CITY           SKY/WX    TMP DP  RH WIND       PRES   REMARKS
LA CROSSE      CLOUDY    64  57  78 NE5       30.17F
SPARTA         CLOUDY    59  57  91 CALM      30.19S
VIROQUA        CLOUDY    58  56  91 NE5       30.18S
BOSCOBEL       CLOUDY    61  59  93 NE5       30.17R FOG
PRAIRIE DU CHI CLOUDY    61  56  84 N5        30.16S
PLATTEVILLE    CLOUDY    59  59 100 N7        30.15F
$$

WIZ056-057-062-063-064-067-068-010300-
SOUTH CENTRAL WISCONSIN

CITY           SKY/WX    TMP DP  RH WIND       PRES   REMARKS
REEDSBURG      NOT AVBL
BARABOO/DELLS  CLOUDY    58  56  95 NE7       30.17S FOG
LONE ROCK      CLOUDY    60  58  92 NE6       30.16F
MINERAL POINT  CLOUDY    59  59 100 N5        30.15S
MADISON        DRIZZLE   59  58  96 N8        30.14F FOG
MIDDLETON      CLOUDY    60  60 100 NE8       30.15F
WATERTOWN      LGT RAIN  59  59 100 N6        30.13F
MONROE         CLOUDY    59  57  94 NE13      30.13S
JANESVILLE     CLOUDY    61  61 100 NE12      30.11F
$$

WIZ051-052-058>065-066-070>072-010300-
SOUTHEAST WISCONSIN

CITY           SKY/WX    TMP DP  RH WIND       PRES   REMARKS
MILWAUKEE      LGT RAIN  61  58  90 NE10      30.11F FOG
WAUKESHA       CLOUDY    57  55  94 NE8G16    30.13F
MILWAUKEE/TIMM NOT AVBL
RACINE         CLOUDY    62  58  86 E13       30.11F
BURLINGTON     LGT RAIN  58  57  97 NE6       30.10F
KENOSHA        LGT RAIN  62  59  90 E15       30.10S
FOND DU LAC    RAIN      61  59  93 NE10      30.15F
SHEBOYGAN      RAIN      61  58  90 E13       30.15S
WEST BEND      LGT RAIN  68  68 100 E10       30.14F
JUNEAU         RAIN      58  58  97 N3        30.15F
$$

LSZ147-162-010300-
LAKE SUPERIOR

STATION/POSITION TIME  TEMP    WIND        PRES    WAVE
                       AIR SEA DIR/SP/G            HT/PER
                 (UTC) (F)     (DEG/KT/KT) (MB)    (FT/S)
W MID LAKE BUOY  0150   55 56   90/ 12/ 14 1025.9F   3/ 5
DEVILS ISLAND    0200   50      40/  5/  5 1026.7F
SAXON HARBOR     0100   55      20/  7/  9 1026.1F
$$

LMZ867-665-643>646-010300-
LAKE MICHIGAN

STATION/POSITION TIME  TEMP    WIND        PRES    WAVE
                       AIR SEA DIR/SP/G            HT/PER
                 (UTC) (F)     (DEG/KT/KT) (MB)    (FT/S)
CHAMBERS ISLAND  0100   64      40/ 13/ 16 1023.0S
S GREEN BAY BUOY 0100   63 62   60/ 19/ 25 1021.9F
N MID LAKE BUOY  0150   64 65   90/ 21/ 25 1022.3F   5/ 5
NORTHPORT PIER   0100   64      70/ 18/ 24 1023.4S
SISTER BAY       0108   63      60/  6/ 10   N/A
KEWAUNEE LAKESHO 0100   63      40/ 16/ 21 1021.2F
SHEBOYGAN LAKESH 0200   61      60/ 15/ 17 1020.5F
PORT WASHINGTON  0100   61      60/ 12/ 18 1021.3
ATWATER BUOY     0200   59 55   70/ 12/ 17 1019.6F
MILWAUKEE LAKESH 0110   58      30/ 11/ 11   N/A
S MID LAKE BUOY  0150   62 67   80/ 17/ 19 1018.1F   5/ 6
KENOSHA   LAKESH 0200   63      70/ 17/ 20 1018.6F
$$

TC  - TEMPERATURE IN CELSIUS
VSB - VISIBILITY IN STATUTE MILES
WCI - WIND CHILL INDEX
HX  - HEAT INDEX





USA.gov is the U.S. government's official web portal to all federal, state and local government web resources and services.